Time,TemperatureF,DewpointF,PressureIn,WindDirection,WindDirectionDegrees,WindSpeedMPH,WindSpeedGustMPH,Humidity,HourlyPrecipIn,Conditions,Clouds,dailyrainin,SoftwareType,DateUTC
2015-05-05 00:02:00,71.6,41.0,29.74,WSW,258,3.5,-999.9,33,-99.99,,,-99.99,,2015-05-05 04:02:00,
2015-05-05 00:08:00,71.6,41.0,29.74,WSW,258,3.5,-999.9,33,-99.99,,,-99.99,,2015-05-05 04:08:00,
2015-05-05 00:14:00,71.6,41.0,29.74,West,275,3.5,-999.9,33,-99.99,,,-99.99,,2015-05-05 04:14:00,
2015-05-05 00:20:00,71.6,41.0,29.74,West,275,3.5,-999.9,33,-99.99,,,-99.99,,2015-05-05 04:20:00,
2015-05-05 00:26:00,71.6,41.0,29.74,West,275,3.5,-999.9,33,-99.99,,,-99.99,,2015-05-05 04:26:00,
2015-05-05 00:32:00,71.6,41.0,29.75,WSW,244,2.3,-999.9,33,-99.99,,,-99.99,,2015-05-05 04:32:00,
2015-05-05 00:38:00,71.6,41.0,29.75,WSW,244,2.3,-999.9,33,-99.99,,,-99.99,,2015-05-05 04:38:00,
2015-05-05 00:44:00,71.6,41.0,29.75,WSW,244,2.3,-999.9,33,-99.99,,,-99.99,,2015-05-05 04:44:00,
2015-05-05 00:50:00,71.6,41.0,29.75,WSW,244,2.3,-999.9,33,-99.99,,,-99.99,,2015-05-05 04:50:00,
2015-05-05 00:56:00,71.6,42.8,29.75,WSW,241,2.3,-999.9,35,-99.99,,,-99.99,,2015-05-05 04:56:00,
2015-05-05 01:02:00,71.6,44.6,29.74,WSW,258,3.5,-999.9,38,-99.99,,,-99.99,,2015-05-05 05:02:00,
2015-05-05 01:08:00,71.6,44.6,29.74,WSW,258,3.5,-999.9,38,-99.99,,,-99.99,,2015-05-05 05:08:00,
2015-05-05 01:14:00,71.6,44.6,29.74,WSW,258,3.5,-999.9,38,-99.99,,,-99.99,,2015-05-05 05:14:00,
2015-05-05 01:20:00,71.6,44.6,29.74,WSW,258,3.5,-999.9,38,-99.99,,,-99.99,,2015-05-05 05:20:00,
2015-05-05 02:12:00,69.8,46.4,29.74,WSW,254,6.9,-999.9,43,-99.99,,,-99.99,,2015-05-05 06:12:00,
2015-05-05 02:18:00,69.8,46.4,29.74,WSW,254,6.9,-999.9,43,-99.99,,,-99.99,,2015-05-05 06:18:00,
2015-05-05 02:24:00,69.8,46.4,29.74,West,267,8.1,-999.9,43,-99.99,,,-99.99,,2015-05-05 06:24:00,
2015-05-05 02:30:00,69.8,46.4,29.74,West,267,8.1,-999.9,43,-99.99,,,-99.99,,2015-05-05 06:30:00,
2015-05-05 02:36:00,69.8,46.4,29.74,WSW,247,2.3,-999.9,43,-99.99,,,-99.99,,2015-05-05 06:36:00,
2015-05-05 02:42:00,69.8,46.4,29.73,North,0,0.0,-999.9,43,-99.99,,,-99.99,,2015-05-05 06:42:00,
2015-05-05 02:48:00,69.8,46.4,29.73,North,0,0.0,-999.9,43,-99.99,,,-99.99,,2015-05-05 06:48:00,
2015-05-05 02:54:00,68.0,46.4,29.73,West,274,3.5,-999.9,46,-99.99,,,-99.99,,2015-05-05 06:54:00,
2015-05-05 03:00:00,68.0,46.4,29.73,West,274,3.5,-999.9,46,-99.99,,,-99.99,,2015-05-05 07:00:00,
2015-05-05 03:12:00,68.0,46.4,29.73,WSW,258,4.6,-999.9,46,-99.99,,,-99.99,,2015-05-05 07:12:00,
2015-05-05 03:18:00,68.0,46.4,29.73,WSW,258,4.6,-999.9,46,-99.99,,,-99.99,,2015-05-05 07:18:00,
2015-05-05 03:24:00,68.0,46.4,29.73,West,267,1.2,-999.9,46,-99.99,,,-99.99,,2015-05-05 07:24:00,
2015-05-05 03:30:00,68.0,46.4,29.73,West,267,1.2,-999.9,46,-99.99,,,-99.99,,2015-05-05 07:30:00,
2015-05-05 03:36:00,68.0,46.4,29.75,West,259,1.2,-999.9,46,-99.99,,,-99.99,,2015-05-05 07:36:00,
2015-05-05 03:42:00,66.2,46.4,29.74,North,0,0.0,-999.9,49,-99.99,,,-99.99,,2015-05-05 07:42:00,
2015-05-05 03:48:00,66.2,46.4,29.74,North,0,0.0,-999.9,49,-99.99,,,-99.99,,2015-05-05 07:48:00,
2015-05-05 03:54:00,66.2,46.4,29.74,WSW,257,1.2,-999.9,49,-99.99,,,-99.99,,2015-05-05 07:54:00,
2015-05-05 04:00:00,66.2,46.4,29.74,WSW,257,1.2,-999.9,49,-99.99,,,-99.99,,2015-05-05 08:00:00,
2015-05-05 04:06:00,66.2,46.4,29.75,North,0,0.0,-999.9,49,-99.99,,,-99.99,,2015-05-05 08:06:00,
2015-05-05 04:12:00,66.2,46.4,29.75,North,0,0.0,-999.9,49,-99.99,,,-99.99,,2015-05-05 08:12:00,
2015-05-05 04:18:00,66.2,46.4,29.75,North,0,0.0,-999.9,49,-99.99,,,-99.99,,2015-05-05 08:18:00,
2015-05-05 04:24:00,66.2,46.4,29.75,North,0,0.0,-999.9,49,-99.99,,,-99.99,,2015-05-05 08:24:00,
2015-05-05 04:30:00,66.2,46.4,29.75,North,0,0.0,-999.9,49,-99.99,,,-99.99,,2015-05-05 08:30:00,
2015-05-05 04:36:00,66.2,48.2,29.75,North,0,0.0,-999.9,52,-99.99,,,-99.99,,2015-05-05 08:36:00,
2015-05-05 04:42:00,66.2,48.2,29.75,North,0,0.0,-999.9,52,-99.99,,,-99.99,,2015-05-05 08:42:00,
2015-05-05 04:48:00,66.2,48.2,29.75,North,0,0.0,-999.9,52,-99.99,,,-99.99,,2015-05-05 08:48:00,
2015-05-05 04:54:00,66.2,48.2,29.75,North,0,0.0,-999.9,52,-99.99,,,-99.99,,2015-05-05 08:54:00,
2015-05-05 05:00:00,66.2,48.2,29.75,North,0,0.0,-999.9,52,-99.99,,,-99.99,,2015-05-05 09:00:00,
2015-05-05 05:06:00,64.4,46.4,29.75,North,0,0.0,-999.9,52,-99.99,,,-99.99,,2015-05-05 09:06:00,
2015-05-05 05:12:00,64.4,46.4,29.75,North,0,0.0,-999.9,52,-99.99,,,-99.99,,2015-05-05 09:12:00,
2015-05-05 05:18:00,64.4,46.4,29.75,North,0,0.0,-999.9,52,-99.99,,,-99.99,,2015-05-05 09:18:00,
2015-05-05 05:24:00,64.4,46.4,29.75,North,0,0.0,-999.9,52,-99.99,,,-99.99,,2015-05-05 09:24:00,
2015-05-05 05:30:00,64.4,46.4,29.75,North,0,0.0,-999.9,52,-99.99,,,-99.99,,2015-05-05 09:30:00,
2015-05-05 05:36:00,64.4,46.4,29.75,North,0,0.0,-999.9,52,-99.99,,,-99.99,,2015-05-05 09:36:00,
2015-05-05 05:42:00,64.4,46.4,29.75,North,0,0.0,-999.9,52,-99.99,,,-99.99,,2015-05-05 09:42:00,
2015-05-05 05:48:00,64.4,46.4,29.75,North,0,0.0,-999.9,52,-99.99,,,-99.99,,2015-05-05 09:48:00,
2015-05-05 05:54:00,64.4,48.2,29.75,North,0,0.0,-999.9,56,-99.99,,,-99.99,,2015-05-05 09:54:00,
2015-05-05 06:00:00,64.4,48.2,29.75,North,0,0.0,-999.9,56,-99.99,,,-99.99,,2015-05-05 10:00:00,
2015-05-05 06:06:00,64.4,48.2,29.75,North,0,0.0,-999.9,56,-99.99,,,-99.99,,2015-05-05 10:06:00,
2015-05-05 06:12:00,64.4,48.2,29.75,North,0,0.0,-999.9,56,-99.99,,,-99.99,,2015-05-05 10:12:00,
2015-05-05 06:18:00,64.4,48.2,29.75,North,0,0.0,-999.9,56,-99.99,,,-99.99,,2015-05-05 10:18:00,
2015-05-05 06:24:00,66.2,48.2,29.76,North,0,0.0,-999.9,52,-99.99,,,-99.99,,2015-05-05 10:24:00,
2015-05-05 06:30:00,66.2,48.2,29.76,North,0,0.0,-999.9,52,-99.99,,,-99.99,,2015-05-05 10:30:00,
2015-05-05 06:36:00,66.2,48.2,29.76,North,0,0.0,-999.9,52,-99.99,,,-99.99,,2015-05-05 10:36:00,
2015-05-05 06:42:00,66.2,48.2,29.76,North,0,0.0,-999.9,52,-99.99,,,-99.99,,2015-05-05 10:42:00,
2015-05-05 06:48:00,66.2,48.2,29.76,North,0,0.0,-999.9,52,-99.99,,,-99.99,,2015-05-05 10:48:00,
2015-05-05 06:54:00,66.2,48.2,29.77,North,0,0.0,-999.9,52,-99.99,,,-99.99,,2015-05-05 10:54:00,
2015-05-05 07:00:00,66.2,48.2,29.77,North,0,0.0,-999.9,52,-99.99,,,-99.99,,2015-05-05 11:00:00,
2015-05-05 07:06:00,66.2,48.2,29.77,North,0,0.0,-999.9,52,-99.99,,,-99.99,,2015-05-05 11:06:00,
2015-05-05 07:12:00,68.0,50.0,29.77,WNW,284,1.2,-999.9,52,-99.99,,,-99.99,,2015-05-05 11:12:00,
2015-05-05 07:18:00,68.0,50.0,29.77,WNW,284,1.2,-999.9,52,-99.99,,,-99.99,,2015-05-05 11:18:00,
2015-05-05 07:24:00,68.0,48.2,29.77,West,272,0.0,-999.9,49,-99.99,,,-99.99,,2015-05-05 11:24:00,
2015-05-05 07:30:00,68.0,48.2,29.77,West,272,0.0,-999.9,49,-99.99,,,-99.99,,2015-05-05 11:30:00,
2015-05-05 07:36:00,69.8,50.0,29.77,North,0,0.0,-999.9,49,-99.99,,,-99.99,,2015-05-05 11:36:00,
2015-05-05 07:42:00,69.8,50.0,29.77,North,0,0.0,-999.9,49,-99.99,,,-99.99,,2015-05-05 11:42:00,
2015-05-05 07:48:00,69.8,50.0,29.77,North,0,0.0,-999.9,49,-99.99,,,-99.99,,2015-05-05 11:48:00,
2015-05-05 07:54:00,69.8,50.0,29.77,North,0,0.0,-999.9,49,-99.99,,,-99.99,,2015-05-05 11:54:00,
2015-05-05 08:00:00,69.8,50.0,29.77,North,0,0.0,-999.9,49,-99.99,,,-99.99,,2015-05-05 12:00:00,
2015-05-05 08:06:00,68.0,48.2,29.77,North,0,0.0,-999.9,49,-99.99,,,-99.99,,2015-05-05 12:06:00,
2015-05-05 08:12:00,68.0,50.0,29.78,North,0,0.0,-999.9,52,-99.99,,,-99.99,,2015-05-05 12:12:00,
2015-05-05 08:18:00,68.0,50.0,29.78,North,0,0.0,-999.9,52,-99.99,,,-99.99,,2015-05-05 12:18:00,
2015-05-05 08:24:00,69.8,50.0,29.78,North,0,0.0,-999.9,49,-99.99,,,-99.99,,2015-05-05 12:24:00,
2015-05-05 08:30:00,69.8,50.0,29.78,North,0,0.0,-999.9,49,-99.99,,,-99.99,,2015-05-05 12:30:00,
2015-05-05 08:36:00,71.6,50.0,29.77,North,0,0.0,-999.9,46,-99.99,,,-99.99,,2015-05-05 12:36:00,
2015-05-05 08:42:00,71.6,50.0,29.77,North,0,0.0,-999.9,46,-99.99,,,-99.99,,2015-05-05 12:42:00,
2015-05-05 08:48:00,71.6,50.0,29.77,North,0,0.0,-999.9,46,-99.99,,,-99.99,,2015-05-05 12:48:00,
2015-05-05 08:54:00,71.6,50.0,29.78,North,0,0.0,-999.9,46,-99.99,,,-99.99,,2015-05-05 12:54:00,
2015-05-05 09:00:00,71.6,50.0,29.78,North,0,0.0,-999.9,46,-99.99,,,-99.99,,2015-05-05 13:00:00,
2015-05-05 09:06:00,71.6,50.0,29.77,NNW,328,0.0,-999.9,46,-99.99,,,-99.99,,2015-05-05 13:06:00,
2015-05-05 09:12:00,71.6,50.0,29.78,North,0,0.0,-999.9,46,-99.99,,,-99.99,,2015-05-05 13:12:00,
2015-05-05 09:18:00,71.6,50.0,29.78,North,0,0.0,-999.9,46,-99.99,,,-99.99,,2015-05-05 13:18:00,
2015-05-05 09:24:00,71.6,50.0,29.78,North,0,0.0,-999.9,46,-99.99,,,-99.99,,2015-05-05 13:24:00,
2015-05-05 09:30:00,71.6,50.0,29.78,North,0,0.0,-999.9,46,-99.99,,,-99.99,,2015-05-05 13:30:00,
2015-05-05 09:36:00,71.6,51.8,29.78,NNW,346,2.3,-999.9,50,-99.99,,,-99.99,,2015-05-05 13:36:00,
2015-05-05 09:42:00,71.6,50.0,29.78,North,0,2.3,-999.9,46,-99.99,,,-99.99,,2015-05-05 13:42:00,
2015-05-05 09:48:00,71.6,50.0,29.78,North,0,2.3,-999.9,46,-99.99,,,-99.99,,2015-05-05 13:48:00,
2015-05-05 09:54:00,71.6,50.0,29.78,North,0,0.0,-999.9,46,-99.99,,,-99.99,,2015-05-05 13:54:00,
2015-05-05 10:00:00,71.6,50.0,29.78,North,0,0.0,-999.9,46,-99.99,,,-99.99,,2015-05-05 14:00:00,
2015-05-05 10:06:00,71.6,50.0,29.78,North,0,0.0,-999.9,46,-99.99,,,-99.99,,2015-05-05 14:06:00,
2015-05-05 10:12:00,71.6,50.0,29.78,North,0,0.0,-999.9,46,-99.99,,,-99.99,,2015-05-05 14:12:00,
2015-05-05 10:18:00,71.6,50.0,29.78,North,0,0.0,-999.9,46,-99.99,,,-99.99,,2015-05-05 14:18:00,
2015-05-05 10:52:00,73.4,50.0,29.79,NNW,329,0.0,-999.9,44,-99.99,,,-99.99,,2015-05-05 14:52:00,
2015-05-05 10:58:00,73.4,50.0,29.79,NNW,329,0.0,-999.9,44,-99.99,,,-99.99,,2015-05-05 14:58:00,
2015-05-05 11:04:00,73.4,50.0,29.79,NNW,329,0.0,-999.9,44,-99.99,,,-99.99,,2015-05-05 15:04:00,
2015-05-05 11:10:00,73.4,50.0,29.79,NNW,329,0.0,-999.9,44,-99.99,,,-99.99,,2015-05-05 15:10:00,
2015-05-05 11:16:00,73.4,50.0,29.79,NNW,329,0.0,-999.9,44,-99.99,,,-99.99,,2015-05-05 15:16:00,
2015-05-05 11:22:00,73.4,50.0,29.79,NNW,329,0.0,-999.9,44,-99.99,,,-99.99,,2015-05-05 15:22:00,
2015-05-05 11:28:00,73.4,50.0,29.79,NNW,329,0.0,-999.9,44,-99.99,,,-99.99,,2015-05-05 15:28:00,
2015-05-05 11:42:00,75.2,51.8,29.79,North,0,0.0,-999.9,44,-99.99,,,-99.99,,2015-05-05 15:42:00,
2015-05-05 11:48:00,75.2,51.8,29.79,North,0,0.0,-999.9,44,-99.99,,,-99.99,,2015-05-05 15:48:00,
2015-05-05 11:54:00,75.2,51.8,29.79,North,0,0.0,-999.9,44,-99.99,,,-99.99,,2015-05-05 15:54:00,
2015-05-05 12:00:00,75.2,51.8,29.79,North,0,0.0,-999.9,44,-99.99,,,-99.99,,2015-05-05 16:00:00,
2015-05-05 12:06:00,75.2,51.8,29.79,North,0,0.0,-999.9,44,-99.99,,,-99.99,,2015-05-05 16:06:00,
2015-05-05 12:12:00,75.2,51.8,29.78,North,0,0.0,-999.9,44,-99.99,,,-99.99,,2015-05-05 16:12:00,
2015-05-05 12:18:00,75.2,51.8,29.78,North,0,0.0,-999.9,44,-99.99,,,-99.99,,2015-05-05 16:18:00,
2015-05-05 12:24:00,77.0,51.8,29.78,North,0,0.0,-999.9,41,-99.99,,,-99.99,,2015-05-05 16:24:00,
2015-05-05 12:30:00,77.0,51.8,29.78,North,0,0.0,-999.9,41,-99.99,,,-99.99,,2015-05-05 16:30:00,
2015-05-05 12:36:00,77.0,51.8,29.77,North,0,0.0,-999.9,41,-99.99,,,-99.99,,2015-05-05 16:36:00,
2015-05-05 12:42:00,77.0,51.8,29.77,NNW,330,1.2,-999.9,41,-99.99,,,-99.99,,2015-05-05 16:42:00,
2015-05-05 12:48:00,77.0,51.8,29.77,NNW,330,1.2,-999.9,41,-99.99,,,-99.99,,2015-05-05 16:48:00,
2015-05-05 12:54:00,77.0,51.8,29.77,NNW,330,1.2,-999.9,41,-99.99,,,-99.99,,2015-05-05 16:54:00,
2015-05-05 13:00:00,77.0,51.8,29.77,NNW,330,1.2,-999.9,41,-99.99,,,-99.99,,2015-05-05 17:00:00,
2015-05-05 13:06:00,78.8,51.8,29.75,North,0,0.0,-999.9,39,-99.99,,,-99.99,,2015-05-05 17:06:00,
2015-05-05 13:12:00,80.6,51.8,29.75,North,0,0.0,-999.9,37,-99.99,,,-99.99,,2015-05-05 17:12:00,
2015-05-05 13:18:00,80.6,51.8,29.75,North,0,0.0,-999.9,37,-99.99,,,-99.99,,2015-05-05 17:18:00,
2015-05-05 13:24:00,80.6,51.8,29.75,North,0,0.0,-999.9,37,-99.99,,,-99.99,,2015-05-05 17:24:00,
2015-05-05 13:30:00,80.6,51.8,29.75,North,0,0.0,-999.9,37,-99.99,,,-99.99,,2015-05-05 17:30:00,
2015-05-05 13:36:00,78.8,51.8,29.75,NNW,344,4.6,-999.9,39,-99.99,,,-99.99,,2015-05-05 17:36:00,
2015-05-05 13:42:00,78.8,53.6,29.75,NNW,342,1.2,-999.9,42,-99.99,,,-99.99,,2015-05-05 17:42:00,
2015-05-05 13:48:00,78.8,53.6,29.75,NNW,342,1.2,-999.9,42,-99.99,,,-99.99,,2015-05-05 17:48:00,
2015-05-05 13:54:00,78.8,51.8,29.75,North,0,0.0,-999.9,39,-99.99,,,-99.99,,2015-05-05 17:54:00,
2015-05-05 14:00:00,78.8,51.8,29.75,North,0,0.0,-999.9,39,-99.99,,,-99.99,,2015-05-05 18:00:00,
2015-05-05 14:06:00,80.6,51.8,29.75,North,0,0.0,-999.9,37,-99.99,,,-99.99,,2015-05-05 18:06:00,
2015-05-05 14:12:00,82.4,53.6,29.74,North,0,0.0,-999.9,37,-99.99,,,-99.99,,2015-05-05 18:12:00,
2015-05-05 14:18:00,82.4,53.6,29.74,North,0,0.0,-999.9,37,-99.99,,,-99.99,,2015-05-05 18:18:00,
2015-05-05 14:24:00,82.4,51.8,29.73,North,0,0.0,-999.9,35,-99.99,,,-99.99,,2015-05-05 18:24:00,
2015-05-05 14:30:00,82.4,51.8,29.73,North,0,0.0,-999.9,35,-99.99,,,-99.99,,2015-05-05 18:30:00,
2015-05-05 14:36:00,82.4,53.6,29.73,North,0,0.0,-999.9,37,-99.99,,,-99.99,,2015-05-05 18:36:00,
2015-05-05 14:42:00,82.4,51.8,29.73,North,0,0.0,-999.9,35,-99.99,,,-99.99,,2015-05-05 18:42:00,
2015-05-05 14:48:00,82.4,51.8,29.73,North,0,0.0,-999.9,35,-99.99,,,-99.99,,2015-05-05 18:48:00,
2015-05-05 14:54:00,84.2,51.8,29.72,North,0,0.0,-999.9,33,-99.99,,,-99.99,,2015-05-05 18:54:00,
2015-05-05 15:00:00,84.2,51.8,29.72,North,0,0.0,-999.9,33,-99.99,,,-99.99,,2015-05-05 19:00:00,
2015-05-05 15:06:00,84.2,51.8,29.72,North,0,0.0,-999.9,33,-99.99,,,-99.99,,2015-05-05 19:06:00,
2015-05-05 15:12:00,86.0,51.8,29.72,West,260,0.0,-999.9,31,-99.99,,,-99.99,,2015-05-05 19:12:00,
2015-05-05 15:18:00,86.0,51.8,29.72,West,260,0.0,-999.9,31,-99.99,,,-99.99,,2015-05-05 19:18:00,
2015-05-05 15:24:00,84.2,51.8,29.71,North,0,0.0,-999.9,33,-99.99,,,-99.99,,2015-05-05 19:24:00,
2015-05-05 15:30:00,84.2,51.8,29.71,North,0,0.0,-999.9,33,-99.99,,,-99.99,,2015-05-05 19:30:00,
2015-05-05 15:36:00,86.0,53.6,29.70,North,0,0.0,-999.9,33,-99.99,,,-99.99,,2015-05-05 19:36:00,
2015-05-05 15:42:00,86.0,51.8,29.70,North,0,0.0,-999.9,31,-99.99,,,-99.99,,2015-05-05 19:42:00,
2015-05-05 15:48:00,86.0,51.8,29.70,North,0,0.0,-999.9,31,-99.99,,,-99.99,,2015-05-05 19:48:00,
2015-05-05 15:54:00,86.0,51.8,29.70,North,0,0.0,-999.9,31,-99.99,,,-99.99,,2015-05-05 19:54:00,
2015-05-05 16:00:00,86.0,51.8,29.70,North,0,0.0,-999.9,31,-99.99,,,-99.99,,2015-05-05 20:00:00,
2015-05-05 16:06:00,86.0,51.8,29.68,North,0,0.0,-999.9,31,-99.99,,,-99.99,,2015-05-05 20:06:00,
2015-05-05 16:12:00,86.0,51.8,29.68,North,0,0.0,-999.9,31,-99.99,,,-99.99,,2015-05-05 20:12:00,
2015-05-05 16:18:00,86.0,51.8,29.68,North,0,0.0,-999.9,31,-99.99,,,-99.99,,2015-05-05 20:18:00,
2015-05-05 16:24:00,86.0,53.6,29.68,West,278,0.0,-999.9,33,-99.99,,,-99.99,,2015-05-05 20:24:00,
2015-05-05 16:30:00,86.0,53.6,29.68,West,278,0.0,-999.9,33,-99.99,,,-99.99,,2015-05-05 20:30:00,
2015-05-05 16:36:00,84.2,51.8,29.68,North,0,0.0,-999.9,33,-99.99,,,-99.99,,2015-05-05 20:36:00,
2015-05-05 16:42:00,86.0,50.0,29.67,North,0,0.0,-999.9,29,-99.99,,,-99.99,,2015-05-05 20:42:00,
2015-05-05 16:48:00,86.0,50.0,29.67,North,0,0.0,-999.9,29,-99.99,,,-99.99,,2015-05-05 20:48:00,
2015-05-05 16:54:00,84.2,48.2,29.67,North,0,0.0,-999.9,29,-99.99,,,-99.99,,2015-05-05 20:54:00,
2015-05-05 17:00:00,84.2,48.2,29.67,North,0,0.0,-999.9,29,-99.99,,,-99.99,,2015-05-05 21:00:00,
2015-05-05 17:06:00,84.2,48.2,29.67,North,0,0.0,-999.9,29,-99.99,,,-99.99,,2015-05-05 21:06:00,